METEOR-M2 4

Last updated on Mon Jun 22 2026 00:02:46 GMT+0000 (Coordinated Universal Time)

1 59051U 24039A 26172.54463940 .00000004 00000+0 21415-4 0 9991 2 59051 98.7012 131.7880 0007535 149.0442 211.1182 14.22429890119885
UTC large
Height (km)
Speed (km/s)
/
Latitude / Longitude
Inclination (degrees)
Orbital Period (minutes)
Azimuth
Elevation
Range (km)
Doppler Factor

Next 0 passes for location: London (51.5072 / 0.1276)

No passes found over London.
METEOR-M2 4